Location: Endfield
(51.6667°N, 0.0667°W)
Time: 12:07:41
(UTC+00:00)

Ariane Rocket - Pass Details

Date: 19 May 2024
Orbit: 758 x 766 km, 98.5° (Epoch: 14 June)

Event Time Altitude Azimuth Distance (km) Brightness Sun altitude
Exits shadow 21:16:53 10° 168° (SSE) 2,270 4.9 -10.3°
Maximum altitude 21:21:53 80° 254° (WSW) 782 3.1 -10.7°
Drops below altitude 10° 21:27:00 10° 343° (NNW) 2,315 6.8 -11.2°
Sets 21:29:19 0° 345° (NNW) 3,247 7.8 -11.4°
